H1 CPF 2 NER 2025 5 1 9 121 01 glonass143 H2 2007501 9143 46805 2025 5 1 0 0 0 2025 5 4 23 45 0 900 1 1 0 0 0 1 H9 10 0 60796 0.00000 0 17005772.423 5028568.121 18356008.577 10 0 60796 900.00000 0 14693080.076 5556196.908 20115667.197 10 0 60796 1800.00000 0 12242763.134 6312903.610 21485308.134 10 0 60796 2700.00000 0 9722095.642 7300915.154 22438354.633 10 0 60796 3600.00000 0 7198891.007 8510076.944 22956287.673 10 0 60796 4500.00000 0 4738872.283 9918104.775 23029005.183 10 0 60796 5400.00000 0 2403141.000 11491358.696 22655020.880 10 0 60796 6300.00000 0 245848.560 13186107.888 21841498.743 10 0 60796 7200.00000 0 -1687834.027 14950235.221 20604122.069 10 0 60796 8100.00000 0 -3363364.534 16725311.777 18966798.935 10 0 60796 9000.00000 0 -4758028.137 18448956.001 16961208.815 10 0 60796 9900.00000 0 -5861636.823 20057379.893 14626198.088 10 0 60796 10800.00000 0 -6676700.790 21488016.418 12007035.095 10 0 60796 11700.00000 0 -7218065.028 22682118.365 9154538.204 10 0 60796 12600.00000 0 -7512026.622 23587219.497 6124093.128 10 0 60796 13500.00000 0 -7594970.298 24159354.154 2974578.155 10 0 60796 14400.00000 0 -7511580.173 24364941.132 -232781.891 10 0 60796 15300.00000 0 -7312703.845 24182251.556 -3435610.340 10 0 60796 16200.00000 0 -7052959.907 23602397.806 -6571598.165 10 0 60796 17100.00000 0 -6788191.121 22629800.753 -9579723.747 10 0 60796 18000.00000 0 -6572872.161 21282114.688 -12401448.165 10 0 60796 18900.00000 0 -6457582.883 19589612.341 -14981861.840 10 0 60796 19800.00000 0 -6486655.275 17594055.332 -17270759.408 10 0 60796 20700.00000 0 -6696094.757 15347097.223 -19223621.214 10 0 60796 21600.00000 0 -7111864.720 12908286.074 -20802482.016 10 0 60796 22500.00000 0 -7748607.594 10342750.162 -21976669.865 10 0 60796 23400.00000 0 -8608857.092 7718663.750 -22723400.931 10 0 60796 24300.00000 0 -9682775.313 5104598.739 -23028219.058 10 0 60796 25200.00000 0 -10948426.179 2566872.518 -22885271.980 10 0 60796 26100.00000 0 -12372573.978 167002.209 -22297419.325 10 0 60796 27000.00000 0 -13911973.642 -2040629.277 -21276170.862 10 0 60796 27900.00000 0 -15515098.790 -4010799.095 -19841456.589 10 0 60796 28800.00000 0 -17124235.109 -5709079.020 -18021233.510 10 0 60796 29700.00000 0 -18677851.381 -7113011.991 -15850936.996 10 0 60796 30600.00000 0 -20113148.788 -8212783.238 -13372787.541 10 0 60796 31500.00000 0 -21368681.637 -9011359.687 -10634966.541 10 0 60796 32400.00000 0 -22386939.602 -9524093.718 -7690677.230 10 0 60796 33300.00000 0 -23116783.243 -9777809.678 -4597109.110 10 0 60796 34200.00000 0 -23515630.601 -9809413.249 -1414326.183 10 0 60796 35100.00000 0 -23551303.238 -9664083.693 1795899.242 10 0 60796 36000.00000 0 -23203454.302 -9393126.368 4971284.422 10 0 60796 36900.00000 0 -22464518.813 -9051577.047 8050242.296 10 0 60796 37800.00000 0 -21340146.385 -8695659.759 10973072.484 10 0 60796 38700.00000 0 -19849098.216 -8380205.804 13683114.197 10 0 60796 39600.00000 0 -18022612.567 -8156142.964 16127838.984 10 0 60796 40500.00000 0 -15903264.960 -8068160.767 18259862.636 10 0 60796 41400.00000 0 -13543370.211 -8152650.078 20037857.283 10 0 60796 42300.00000 0 -11002992.254 -8436003.660 21427346.691 10 0 60796 43200.00000 0 -8347643.731 -8933349.260 22401370.133 10 0 60796 44100.00000 0 -5645769.943 -9647768.695 22941002.618 10 0 60796 45000.00000 0 -2966120.525 -10570036.240 23035721.872 10 0 60796 45900.00000 0 -375116.722 -11678888.152 22683615.209 10 0 60796 46800.00000 0 2065677.703 -12941813.114 21891422.201 10 0 60796 47700.00000 0 4301878.052 -14316331.776 20674411.909 10 0 60796 48600.00000 0 6288297.306 -15751713.177 19056096.358 10 0 60796 49500.00000 0 7990578.686 -17191057.501 17067784.869 10 0 60796 50400.00000 0 9386374.716 -18573658.985 14747986.821 10 0 60796 51300.00000 0 10466024.113 -19837550.769 12141673.356 10 0 60796 52200.00000 0 11232698.533 -20922125.312 9299411.377 10 0 60796 53100.00000 0 11702013.300 -21770720.328 6276385.921 10 0 60796 54000.00000 0 11901118.809 -22333061.052 3131329.481 10 0 60796 54900.00000 0 11867311.232 -22567455.306 -74621.030 10 0 60796 55800.00000 0 11646221.634 -22442647.785 -3279117.106 10 0 60796 56700.00000 0 11289660.687 -21939254.204 -6419817.509 10 0 60796 57600.00000 0 10853210.924 -21050713.549 -9435608.629 10 0 60796 58500.00000 0 10393669.442 -19783717.051 -12267801.612 10 0 60796 59400.00000 0 9966450.316 -18158094.764 -14861282.017 10 0 60796 60300.00000 0 9623057.747 -16206163.600 -17165588.820 10 0 60796 61200.00000 0 9408737.870 -13971563.610 -19135901.043 10 0 60796 62100.00000 0 9360409.371 -11507630.913 -20733912.491 10 0 60796 63000.00000 0 9504961.040 -8875375.175 -21928577.414 10 0 60796 63900.00000 0 9857988.631 -6141146.101 -22696712.739 10 0 60796 64800.00000 0 10423024.594 -3374086.255 -23023445.481 10 0 60796 65700.00000 0 11191293.282 -643476.254 -22902497.117 10 0 60796 66600.00000 0 12142001.969 1983917.392 -22336299.906 10 0 60796 67500.00000 0 13243155.338 4446381.880 -21335943.398 10 0 60796 68400.00000 0 14452859.121 6689580.254 -19920952.641 10 0 60796 69300.00000 0 15721057.955 8668560.372 -18118902.736 10 0 60796 70200.00000 0 16991634.284 10349368.329 -15964877.499 10 0 60796 71100.00000 0 18204780.043 11710200.526 -13500782.931 10 0 60796 72000.00000 0 19299541.309 12742047.946 -10774528.995 10 0 60796 72900.00000 0 20216428.906 13448807.476 -7839095.708 10 0 60796 73800.00000 0 20899985.158 13846857.404 -4751501.829 10 0 60796 74700.00000 0 21301198.814 13964116.655 -1571696.352 10 0 60796 75600.00000 0 21379666.575 13838628.906 1638605.507 10 0 60796 76500.00000 0 21105410.339 13516732.538 4817119.086 10 0 60796 77400.00000 0 20460273.754 13050894.634 7902196.455 10 0 60796 78300.00000 0 19438839.337 12497301.094 10834018.593 10 0 60796 79200.00000 0 18048827.513 11913304.993 13555750.612 10 0 60796 80100.00000 0 16310960.593 11354840.905 16014637.876 10 0 60796 81000.00000 0 14258296.915 10873914.140 18163022.280 10 0 60796 81900.00000 0 11935062.358 10516270.420 19959259.614 10 0 60796 82800.00000 0 9395027.154 10319343.780 21368520.937 10 0 60796 83700.00000 0 6699494.590 10310568.719 22363463.190 10 0 60796 84600.00000 0 3914984.039 10506127.413 22924756.720 10 0 60796 85500.00000 0 1110703.285 10910184.657 23041459.973 10 0 60797 0.00000 0 -1644086.045 11514642.952 22711234.412 10 0 60797 900.00000 0 -4282703.492 12299428.985 21940395.172 10 0 60797 1800.00000 0 -6743573.423 13233299.541 20743796.615 10 0 60797 2700.00000 0 -8972538.581 14275135.192 19144553.749 10 0 60797 3600.00000 0 -10924864.615 15375667.855 17173604.304 10 0 60797 4500.00000 0 -12566854.291 16479571.060 14869118.801 10 0 60797 5400.00000 0 -13877004.340 17527825.938 12275768.994 10 0 60797 6300.00000 0 -14846656.951 18460264.047 9443867.864 10 0 60797 7200.00000 0 -15480118.818 19218180.162 6428397.132 10 0 60797 8100.00000 0 -15794242.960 19746904.754 3287940.735 10 0 60797 9000.00000 0 -15817491.157 19998227.041 83544.839 10 0 60797 9900.00000 0 -15588516.849 19932565.395 -3122473.099 10 0 60797 10800.00000 0 -15154328.814 19520792.264 -6267742.521 10 0 60797 11700.00000 0 -14568113.892 18745635.196 -9291060.685 10 0 60797 12600.00000 0 -13886811.648 17602593.449 -12133591.566 10 0 60797 13500.00000 0 -13168544.477 16100330.205 -14740018.480 10 0 60797 14400.00000 0 -12470012.835 14260522.705 -17059627.129 10 0 60797 15300.00000 0 -11843966.624 12117175.627 -19047297.339 10 0 60797 16200.00000 0 -11336860.390 9715425.822 -20664383.770 10 0 60797 17100.00000 0 -10986791.952 7109887.923 -21879468.347 10 0 60797 18000.00000 0 -10821811.803 4362609.721 -22668969.864 10 0 60797 18900.00000 0 -10858674.708 1540722.380 -23017599.247 10 0 60797 19800.00000 0 -11102086.015 -1286116.745 -22918652.063 10 0 60797 20700.00000 0 -11544474.160 -4048382.473 -22374133.125 10 0 60797 21600.00000 0 -12166298.566 -6679331.128 -21394711.284 10 0 60797 22500.00000 0 -12936879.544 -9117531.239 -19999505.733 10 0 60797 23400.00000 0 -13815714.828 -11309171.090 -18215708.370 10 0 60797 24300.00000 0 -14754226.919 -13210048.117 -16078049.815 10 0 60797 25200.00000 0 -15697867.341 -14787158.520 -13628119.654 10 0 60797 26100.00000 0 -16588488.906 -16019822.213 -10913554.279 10 0 60797 27000.00000 0 -17366885.851 -16900297.684 -7987108.220 10 0 60797 27900.00000 0 -17975394.660 -17433862.753 -4905627.138 10 0 60797 28800.00000 0 -18360445.867 -17638359.457 -1728942.608 10 0 60797 29700.00000 0 -18474959.214 -17543223.778 1481289.684 10 0 60797 30600.00000 0 -18280481.191 -17188042.449 4662785.628 10 0 60797 31500.00000 0 -17748974.844 -16620698.719 7753838.914 10 0 60797 32400.00000 0 -16864186.418 -15895186.076 10694514.383 10 0 60797 33300.00000 0 -15622531.128 -15069182.615 13427805.528 10 0 60797 34200.00000 0 -14033460.559 -14201488.447 15900733.929 10 0 60797 35100.00000 0 -12119295.733 -13349434.067 18065369.838 10 0 60797 36000.00000 0 -9914532.120 -12566368.429 19879754.746 10 0 60797 36900.00000 0 -7464644.676 -11899331.964 21308708.772 10 0 60797 37800.00000 0 -4824441.591 -11387011.831 22324507.966 10 0 60797 38700.00000 0 -2056033.916 -11058064.781 22907419.110 10 0 60797 39600.00000 0 773495.954 -10929877.738 23046082.116 10 0 60797 40500.00000 0 3594631.638 -11007817.943 22737732.905 10 0 60797 41400.00000 0 6338062.206 -11285004.299 21988262.381 10 0 60797 42300.00000 0 8937315.491 -11742609.899 20812109.984 10 0 60797 43200.00000 0 11331277.230 -12350683.715 19231993.216 10 0 60797 44100.00000 0 13466492.347 -13069457.751 17278477.433 10 0 60797 45000.00000 0 15299153.362 -13851085.588 14989393.222 10 0 60797 45900.00000 0 16796693.558 -14641739.978 12409111.530 10 0 60797 46800.00000 0 17938918.676 -15383981.762 9587689.648 10 0 60797 47700.00000 0 18718629.899 -16019300.531 6579903.855 10 0 60797 48600.00000 0 19141712.056 -16490719.771 3444187.054 10 0 60797 49500.00000 0 19226683.430 -16745355.999 241491.900 10 0 60797 50400.00000 0 19003726.264 -16736822.921 -2965898.177 10 0 60797 51300.00000 0 18513239.138 -16427377.837 -6115586.399 10 0 60797 52200.00000 0 17803972.806 -15789718.212 -9146284.017 10 0 60797 53100.00000 0 16930828.856 -14808351.031 -11999010.909 10 0 60797 54000.00000 0 15952415.018 -13480475.646 -14618251.077 10 0 60797 54900.00000 0 14928461.235 -11816341.499 -16953039.708 10 0 60797 55800.00000 0 13917206.500 -9839064.433 -18957959.939 10 0 60797 56700.00000 0 12972867.497 -7583908.305 -20594029.489 10 0 60797 57600.00000 0 12143296.382 -5097061.198 -21829459.813 10 0 60797 58500.00000 0 11467926.761 -2433956.879 -22640273.027 10 0 60797 59400.00000 0 10976094.404 342788.792 -23010764.977 10 0 60797 60300.00000 0 10685803.171 3165740.820 -22933805.881 10 0 60797 61200.00000 0 10602987.580 5965209.218 -22410973.220 10 0 60797 62100.00000 0 10721302.422 8671908.007 -21452514.818 10 0 60797 63000.00000 0 11022447.472 11219598.934 -20077143.290 10 0 60797 63900.00000 0 11477012.841 13547610.500 -18311666.224 10 0 60797 64800.00000 0 12045808.584 15603128.285 -16190459.589 10 0 60797 65700.00000 0 12681621.866 17343162.178 -13754794.760 10 0 60797 66600.00000 0 13331327.009 18736109.617 -11052032.447 10 0 60797 67500.00000 0 13938258.962 19762850.941 -8134699.284 10 0 60797 68400.00000 0 14444749.697 20417332.475 -5059465.165 10 0 60797 69300.00000 0 14794720.216 20706614.443 -1886041.373 10 0 60797 70200.00000 0 14936218.592 20650383.175 1323978.937 10 0 60797 71100.00000 0 14823796.783 20279949.488 4508315.252 10 0 60797 72000.00000 0 14420625.860 19636776.512 7605205.886 10 0 60797 72900.00000 0 13700260.309 18770599.879 10554602.426 10 0 60797 73800.00000 0 12647976.897 17737219.970 13299329.443 10 0 60797 74700.00000 0 11261631.428 16596059.494 15786187.217 10 0 60797 75600.00000 0 9551996.889 15407589.077 17966976.596 10 0 60797 76500.00000 0 7542568.051 14230728.866 19799426.761 10 0 60797 77400.00000 0 5268839.732 13120334.747 21248008.596 10 0 60797 78300.00000 0 2777087.639 12124874.094 22284618.679 10 0 60797 79200.00000 0 122701.183 11284387.811 22889121.315 10 0 60797 80100.00000 0 -2631863.906 10628823.484 23049738.599 10 0 60797 81000.00000 0 -5419429.701 10176808.977 22763281.266 10 0 60797 81900.00000 0 -8170641.236 9934917.578 22035215.777 10 0 60797 82800.00000 0 -10816608.530 9897455.441 20879566.024 10 0 60797 83700.00000 0 -13291537.118 10046780.423 19318650.864 10 0 60797 84600.00000 0 -15535238.893 10354139.353 17382661.679 10 0 60797 85500.00000 0 -17495419.585 10780989.064 15109087.077 10 0 60798 0.00000 0 -19129647.941 11280746.138 12541995.054 10 0 60798 900.00000 0 -20406925.509 11800892.400 9731184.092 10 0 60798 1800.00000 0 -21308789.242 12285346.951 6731222.417 10 0 60798 2700.00000 0 -21829903.548 12677005.455 3600388.981 10 0 60798 3600.00000 0 -21978114.526 12920338.344 399539.981 10 0 60798 4500.00000 0 -21773964.942 12963937.579 -2809078.123 10 0 60798 5400.00000 0 -21249690.260 12762903.122 -5963045.227 10 0 60798 6300.00000 0 -20447738.278 12280966.844 -9000989.408 10 0 60798 7200.00000 0 -19418875.246 11492262.556 -11863789.167 10 0 60798 8100.00000 0 -18219959.007 10382665.835 -14495731.753 10 0 60798 9000.00000 0 -16911473.836 8950645.553 -16845604.164 10 0 60798 9900.00000 0 -15554931.727 7207589.855 -18867694.855 10 0 60798 10800.00000 0 -14210250.378 5177591.632 -20522686.262 10 0 60798 11700.00000 0 -12933218.856 2896701.448 -21778420.588 10 0 60798 12600.00000 0 -11773157.925 411678.465 -22610524.046 10 0 60798 13500.00000 0 -10770873.457 -2221709.064 -23002877.723 10 0 60798 14400.00000 0 -9956988.640 -4940763.251 -22947926.349 10 0 60798 15300.00000 0 -9350724.510 -7678229.644 -22446819.491 10 0 60798 16200.00000 0 -8959179.148 -10364865.434 -21509382.947 10 0 60798 17100.00000 0 -8777134.848 -12932096.324 -20153921.369 10 0 60798 18000.00000 0 -8787400.190 -15314651.891 -18406856.330 10 0 60798 18900.00000 0 -8961671.500 -17453070.359 -16302207.164 10 0 60798 19800.00000 0 -9261876.314 -19295969.180 -13880924.869 10 0 60798 20700.00000 0 -9641941.251 -20801987.644 -11190092.185 10 0 60798 21600.00000 0 -10049908.902 -21941321.444 -8282005.525 10 0 60798 22500.00000 0 -10430313.716 -22696786.264 -5213156.706 10 0 60798 23400.00000 0 -10726716.026 -23064367.088 -2043134.460 10 0 60798 24300.00000 0 -10884286.815 -23053231.501 1166532.796 10 0 60798 25200.00000 0 -10852333.754 -22685207.680 4353570.307 10 0 60798 26100.00000 0 -10586661.641 -21993750.087 7456163.130 10 0 60798 27000.00000 0 -10051667.433 -21022437.288 10414151.699 10 0 60798 27900.00000 0 -9222081.327 -19823065.675 13170193.735 10 0 60798 28800.00000 0 -8084280.241 -18453419.620 15670870.224 10 0 60798 29700.00000 0 -6637118.001 -16974811.761 17867714.512 10 0 60798 30600.00000 0 -4892236.698 -15449496.442 19718145.209 10 0 60798 31500.00000 0 -2873845.257 -13938064.307 21186285.493 10 0 60798 32400.00000 0 -617973.291 -12496926.534 22243653.741 10 0 60798 33300.00000 0 1828770.023 -11175993.200 22869712.764 10 0 60798 34200.00000 0 4410881.936 -10016642.135 23052267.534 10 0 60798 35100.00000 0 7066028.499 -9050062.417 22787703.990 10 0 60798 36000.00000 0 9727399.346 -8296041.176 22081064.260 10 0 60798 36900.00000 0 12326258.642 -7762244.012 20945956.519 10 0 60798 37800.00000 0 14794587.659 -7444018.969 19404300.552 10 0 60798 38700.00000 0 17067710.335 -7324732.234 17485913.055 10 0 60798 39600.00000 0 19086793.408 -7376621.667 15227939.666 10 0 60798 40500.00000 0 20801117.492 -7562132.524 12674143.624 10 0 60798 41400.00000 0 22170024.526 -7835679.408 9874063.866 10 0 60798 42300.00000 0 23164460.093 -8145760.288 6882058.095 10 0 60798 43200.00000 0 23768045.742 -8437333.305 3756248.917 10 0 60798 44100.00000 0 23977635.982 -8654355.542 557393.344 10 0 60798 45000.00000 0 23803336.165 -8742375.727 -2652302.107 10 0 60798 45900.00000 0 23267980.270 -8651070.147 -5810397.142 10 0 60798 46800.00000 0 22406090.518 -8336613.221 -8855439.834 10 0 60798 47700.00000 0 21262362.791 -7763780.937 -11728170.413 10 0 60798 48600.00000 0 19889742.057 -6907696.694 -14372682.320 10 0 60798 49500.00000 0 18347169.432 -5755144.197 -16737517.081 10 0 60798 50400.00000 0 16697096.396 -4305390.557 -18776670.921 10 0 60798 51300.00000 0 15002871.436 -2570483.551 -20450493.120 10 0 60798 52200.00000 0 13326109.538 -575009.394 -21726458.434 10 0 60798 53100.00000 0 11724155.402 1644679.795 -22579798.604 10 0 60798 54000.00000 0 10247746.963 4041737.226 -22993980.989 10 0 60798 54900.00000 0 8938976.935 6560538.863 -22961025.443 10 0 60798 55800.00000 0 7829637.344 9138775.758 -22481653.801 10 0 60798 56700.00000 0 6940015.497 11709834.447 -21565269.581 10 0 60798 57600.00000 0 6278190.763 14205366.572 -20229768.793 10 0 60798 58500.00000 0 5839860.302 16557941.032 -18501185.899 10 0 60798 59400.00000 0 5608699.625 18703668.577 -16413182.121 10 0 60798 60300.00000 0 5557241.373 20584690.021 -14006386.228 10 0 60798 61200.00000 0 5648233.969 22151424.835 -11327600.803 10 0 60798 62100.00000 0 5836421.647 23364487.034 -8428889.534 10 0 60798 63000.00000 0 6070669.752 24196189.145 -5366563.388 10 0 60798 63900.00000 0 6296344.725 24631572.241 -2200085.561 10 0 60798 64800.00000 0 6457847.598 24668919.951 1009083.381 10 0 60798 65700.00000 0 6501193.490 24319735.921 4198677.598 10 0 60798 66600.00000 0 6376527.768 23608186.604 7306832.021 10 0 60798 67500.00000 0 6040472.374 22570033.650 10273278.926 10 0 60798 68400.00000 0 5458203.079 21251101.315 13040511.993 10 0 60798 69300.00000 0 4605169.839 19705343.604 15554895.491 10 0 60798 70200.00000 0 3468387.451 17992592.341 17767697.579 10 0 60798 71100.00000 0 2047241.717 16176080.326 19636028.323 10 0 60798 72000.00000 0 353776.505 14319842.831 21123664.933 10 0 60798 72900.00000 0 -1587551.345 12486105.464 22201748.993 10 0 60798 73800.00000 0 -3740640.355 10732766.652 22849342.884 10 0 60798 74700.00000 0 -6059005.414 9111078.990 23053835.127 10 0 60798 75600.00000 0 -8487480.590 7663625.278 22811187.104 10 0 60798 76500.00000 0 -10964294.644 6422672.844 22126016.382 10 0 60798 77400.00000 0 -13423434.538 5408974.155 21011514.682 10 0 60798 78300.00000 0 -15797200.233 4631063.293 19489201.455 10 0 60798 79200.00000 0 -18018845.737 4085077.361 17588516.946 10 0 60798 80100.00000 0 -20025197.409 3755110.141 15346261.580 10 0 60798 81000.00000 0 -21759140.949 3614083.123 12805891.443 10 0 60798 81900.00000 0 -23171873.503 3625097.291 10016682.506 10 0 60798 82800.00000 0 -24224826.552 3743208.727 7032778.999 10 0 60798 83700.00000 0 -24891178.686 3917552.974 3912143.904 10 0 60798 84600.00000 0 -25156894.249 4093728.071 715431.741 10 0 60798 85500.00000 0 -25021243.583 4216334.856 -2495194.174 10 0 60799 0.00000 0 -24496782.519 4231566.143 -5657276.254 10 0 60799 900.00000 0 -23608791.211 4089733.982 -8709286.180 10 0 60799 1800.00000 0 -22394196.519 3747626.644 -11591828.498 10 0 60799 2700.00000 0 -20900022.460 3170594.160 -14248805.500 10 0 60799 3600.00000 0 -19181434.800 2334272.647 -16628515.603 10 0 60799 4500.00000 0 -17299462.309 1225873.129 -18684664.796 10 0 60799 5400.00000 0 -15318490.983 -155020.852 -20377270.746 10 0 60799 6300.00000 0 -13303636.928 -1796181.657 -21673441.783 10 0 60799 7200.00000 0 -11318108.479 -3673004.432 -22548015.636 10 0 60799 8100.00000 0 -9420668.201 -5749302.106 -22984045.826 10 0 60799 9000.00000 0 -7663300.876 -7978595.897 -22973126.673 10 0 60799 9900.00000 0 -6089184.572 -10305847.847 -22515551.104 10 0 60799 10800.00000 0 -4731048.826 -12669563.439 -21620298.745 10 0 60799 11700.00000 0 -3609987.479 -15004176.859 -20304854.975 10 0 60799 12600.00000 0 -2734774.467 -17242619.703 -18594864.864 10 0 60799 13500.00000 0 -2101709.637 -19318966.234 -16523629.033 10 0 60799 14400.00000 0 -1694999.380 -21171045.199 -14131451.412 10 0 60799 15300.00000 0 -1487654.415 -22742909.518 -11464851.774 10 0 60799 16200.00000 0 -1442865.411 -23987061.164 -8575658.470 10 0 60799 17100.00000 0 -1515797.059 -24866338.771 -5519999.099 10 0 60799 18000.00000 0 -1655723.772 -25355389.611 -2357208.938 10 0 60799 18900.00000 0 -1808415.868 -25441665.005 851321.543 10 0 60799 19800.00000 0 -1918674.747 -25125898.223 4043337.519 10 0 60799 20700.00000 0 -1932909.397 -24422045.540 7156925.752 10 0 60799 21600.00000 0 -1801645.081 -23356693.613 10131712.215 10 0 60799 22500.00000 0 -1481857.986 -21967958.557 12910028.284 10 0 60799 23400.00000 0 -939037.187 -20303923.192 15438023.127 10 0 60799 24300.00000 0 -148886.754 -18420678.031 17666701.179 10 0 60799 25200.00000 0 901403.967 -16380047.805 19552865.249 10 0 60799 26100.00000 0 2212375.841 -14247098.139 21059947.636 10 0 60799 27000.00000 0 3772034.919 -12087525.800 22158713.940 10 0 60799 27900.00000 0 5556119.068 -9965040.506 22827826.653 10 0 60799 28800.00000 0 7528886.489 -7938846.450 23054258.105 10 0 60799 29700.00000 0 9644394.727 -6061327.387 22833545.125 10 0 60799 30600.00000 0 11848218.559 -4376030.696 22169880.463 10 0 60799 31500.00000 0 14079536.858 -2916033.509 21076038.908 10 0 60799 32400.00000 0 16273503.107 -1702758.245 19573138.881 10 0 60799 33300.00000 0 18363802.200 -745286.410 17690243.273 10 0 60799 34200.00000 0 20285287.987 -40198.930 15463806.172 10 0 60799 35100.00000 0 21976592.204 428050.571 12936975.159 10 0 60799 36000.00000 0 23382596.096 686245.411 10158761.623 10 0 60799 36900.00000 0 24456661.164 771036.010 7183094.430 10 0 60799 37800.00000 0 25162525.147 727148.542 4067774.754 10 0 60799 38700.00000 0 25475783.003 605248.052 873352.180 10 0 60799 39600.00000 0 25384889.811 459546.957 -2338055.847 10 0 60799 40500.00000 0 24891642.600 345260.908 -5503977.803 10 0 60799 41400.00000 0 24011120.093 316020.792 -8562810.688 10 0 60799 42300.00000 0 22771082.335 421351.692 -11455026.727 10 0 60799 43200.00000 0 21210855.159 704326.905 -14124339.702 10 0 60799 44100.00000 0 19379746.346 1199497.725 -16518807.352 10 0 60799 45000.00000 0 17335060.199 1931187.893 -18591847.614 10 0 60799 45900.00000 0 15139794.202 2912226.056 -20303148.462 10 0 60799 46800.00000 0 12860114.708 4143170.828 -21619453.448 10 0 60799 47700.00000 0 10562717.713 5612062.111 -22515207.657 10 0 60799 48600.00000 0 8312185.325 7294709.915 -22973051.845 10 0 60799 49500.00000 0 6168448.296 9155509.249 -22984155.533 10 0 60799 50400.00000 0 4184460.297 11148747.413 -22548383.124 10 0 60799 51300.00000 0 2404180.284 13220349.359 -21674290.334 10 0 60799 52200.00000 0 860946.165 15309988.450 -20378951.481 10 0 60799 53100.00000 0 -423693.628 17353474.569 -18687621.392 10 0 60799 54000.00000 0 -1440643.419 19285320.029 -16633238.818 10 0 60799 54900.00000 0 -2193392.415 21041376.232 -14255781.185 10 0 60799 55800.00000 0 -2697611.963 22561431.067 -11601483.427 10 0 60799 56700.00000 0 -2980236.634 23791658.643 -8721936.192 10 0 60799 57600.00000 0 -3078069.489 24686819.180 -5673081.070 10 0 60799 58500.00000 0 -3035971.729 25212117.276 -2514122.551 10 0 60799 59400.00000 0 -2904714.355 25344641.101 693622.008 10 0 60799 60300.00000 0 -2738583.476 25074322.703 3887911.895 10 0 60799 61200.00000 0 -2592841.157 24404379.600 7006788.816 10 0 60799 62100.00000 0 -2521149.525 23351219.612 9989775.477 10 0 60799 63000.00000 0 -2573067.225 21943813.276 12779043.858 10 0 60799 63900.00000 0 -2791724.053 20222560.330 15320530.753 10 0 60799 64800.00000 0 -3211771.951 18237697.735 17564979.385 10 0 60799 65700.00000 0 -3857698.825 16047315.522 19468887.562 10 0 60799 66600.00000 0 -4742576.423 13715062.904 20995344.648 10 0 60799 67500.00000 0 -5867295.354 11307639.556 22114741.934 10 0 60799 68400.00000 0 -7220320.127 8892175.695 22805343.338 10 0 60799 69300.00000 0 -8777975.480 6533608.942 23053705.925 10 0 60799 70200.00000 0 -10505253.376 4292165.949 22854942.449 10 0 60799 71100.00000 0 -12357108.423 2221052.366 22212820.822 10 0 60799 72000.00000 0 -14280189.271 364446.217 21139698.345 10 0 60799 72900.00000 0 -16214935.272 -1244122.767 19656291.303 10 0 60799 73800.00000 0 -18097952.372 -2582941.088 17791283.560 10 0 60799 74700.00000 0 -19864570.182 -3642778.526 15580780.679 10 0 60799 75600.00000 0 -21451474.173 -4427026.861 13067619.072 10 0 60799 76500.00000 0 -22799303.335 -4951304.785 10300542.503 10 0 60799 77400.00000 0 -23855104.403 -5242545.849 7333261.136 10 0 60799 78300.00000 0 -24574539.356 -5337608.136 4223410.823 10 0 60799 79200.00000 0 -24923752.717 -5281464.644 1031432.620 10 0 60799 80100.00000 0 -24880819.210 -5125051.340 -2180605.499 10 0 60799 81000.00000 0 -24436709.791 -4922864.632 -5350221.319 10 0 60799 81900.00000 0 -23595734.373 -4730410.839 -8415741.123 10 0 60799 82800.00000 0 -22375441.681 -4601616.802 -11317507.735 10 0 60799 83700.00000 0 -20805979.789 -4586312.493 -13999049.396 10 0 60799 84600.00000 0 -18928943.757 -4727893.512 -16408185.811 10 0 60799 85500.00000 0 -16795758.628 -5061263.603 -18498049.101 99